User: anonymous   Login
Location: Unspecified
(0.0000°N, 0.0000°E)
Time: 10:17:46
(UTC+00:00)
Language:

GONETS M03 - Orbit

View from above orbital plane
View from above orbital plane
View from above satellite
View from above satellite

Ground track
Ground track

The orbit data is extracted from the following two-line orbital elements,

1 38734U 12041B   18232.48303516 +.00000007 +00000-0 -23841-4 0  9999
2 38734 082.4718 054.4897 0015808 193.0661 167.0012 12.44798442275176
Epoch (UTC): 20 August 2018 11:35:34
Eccentricity: 0.0015808
inclination: 82.4718°
perigee height: 1474 km
apogee height: 1499 km
right ascension of ascending node: 54.4897°
argument of perigee: 193.0661°
revolutions per day: 12.44798442
mean anomaly at epoch: 167.0012°
orbit number at epoch: 27517

The dashed part of the orbit path shows where the satellite is in the earth's shadow,  

DLR